AirNav   Everest Fuels
 
 415 users online  

44M Tenkiller Lake Airpark
Cookson, Oklahoma, USA

GOING TO COOKSON?


FAA INFORMATION EFFECTIVE 09 SEPTEMBER 2021

Location

FAA Identifier: 44M
Lat/Long: 35-42-17.9000N 094-56-10.1000W
35-42.298333N 094-56.168333W
35.7049722,-94.9361389
(estimated)
Elevation: 877 ft. / 267 m (estimated)
Variation: 05E (1985)
From city: 1 mile SW of COOKSON, OK
Time zone: UTC -5 (UTC -6 during Standard Time)
Zip code: 74427

Airport Operations

Airport use: Open to the public
Activation date: 11/1970
Control tower: no
ARTCC: MEMPHIS CENTER
FSS: MC ALESTER FLIGHT SERVICE STATION
NOTAMs facility: MLC (NOTAM-D service available)
Attendance: IRREG
Wind indicator: yes
Segmented circle: yes
Lights: ACTVT VASI RWY 05 & 23 - CTAF. LIRL RWY 05/23 DUSK-DAWN.
Beacon: white-green (lighted land airport)
ROTG BCN OTS INDEFLY. Operates sunset to sunrise.

Airport Communications

CTAF/UNICOM: 122.8
WX AWOS-3P at TQH (14 nm N): 118.425 (918-453-2729)
WX AWOS-3 at JSV (17 nm S): 118.475 (918-775-4136)

Nearby radio navigation aids

VOR radial/distance  VOR name  Freq  Var
FSMr293/37.6FORT SMITH VORTAC110.4007E

 
NDB name  Hdg/Dist  Freq  Var  ID
SILOAM SPRINGS213/36.328404ESLG ... .-.. --.

Airport Services

Fuel available: 100LL
100LL:FOR FUEL OR AFTER HOURS ASSISTANCE CALL 918-457-4095 OR 918-931-0601.
Parking: hangars and tiedowns
Airframe service: NONE
Powerplant service: NONE
Bottled oxygen: NONE
Bulk oxygen: NONE

Runway Information

Runway 5/23

Dimensions: 2600 x 75 ft. / 792 x 23 m
Surface: turf, in good condition
Runway edge lights: low intensity
RUNWAY 5  RUNWAY 23
Latitude: 35-42.179678N35-42.417857N
Longitude: 094-56.386320W094-55.949370W
Elevation: 820.0 ft.853.0 ft.
Traffic pattern: leftleft
Runway heading: 051 magnetic, 056 true231 magnetic, 236 true
Visual slope indicator: 2-box VASI on left (3.00 degrees glide path)2-box VASI on left (3.50 degrees glide path)
Obstructions: 27 ft. trees, 100 ft. left of centerline41 ft. trees, 80 ft. from runway, 125 ft. left of centerline, 1:1 slope to clear

Airport Ownership and Management from official FAA records

Ownership: Publicly-owned
Owner: CHEROKEE COUNTY AIRPORT AUTHORITY
213 W. DELAWARE ST STE 202
TAHLEQUAH, OK 74464
Phone 918-456-4121
Manager: CLIF HALL
213 W. DELAWARE ST STE 202
TAHLEQUAH, OK 74464
Phone 918-456-4121
BOARD OF COMMISSIONERS OF CHEROKEE COUNTY

Airport Operational Statistics

Aircraft based on the field: 20
Single engine airplanes: 20
    
Aircraft operations: avg 54/week *
50% transient general aviation
50% local general aviation
* for 12-month period ending 13 December 2016

Additional Remarks

CTN: DEER ON & INVOF RWY.
FOR CD CTC RAZORBACK APCH 479-649-2416, WHEN APCH CLSD CTC MEMPHIS ARTCC AT 901-368-8453/8449.

Instrument Procedures

There are no published instrument procedures at 44M.

Some nearby airports with instrument procedures:

KTQH - Tahlequah Municipal Airport (14 nm N)
KJSV - Sallisaw Municipal Airport (17 nm S)
KMKO - Muskogee-Davis Regional Airport (21 nm W)
H68 - Hefner-Easley Airport (25 nm NW)
KGZL - Stigler Regional Airport (26 nm S)
 
Loc | Ops | Rwys | IFR | FBO | Links
Com | Nav | Svcs | Stats | Notes
Area around 44M (Tenkiller Lake Airpark)
 
Road maps at: MapQuest Bing Google
 
Aerial photo
WARNING: Photo may not be current or correct
Aerial photo of 44M (Tenkiller Lake Airpark)
Photo by Valerie Westedt
Photo taken 19-Nov-2020
looking west-southwest.

Do you have a better or more recent aerial photo of Tenkiller Lake Airpark that you would like to share? If so, please send us your photo.

 
Sectional chart

 
Airport distance calculator
Flying to Tenkiller Lake Airpark? Find the distance to fly.

From to 44M

Sunrise and sunset
Times for 23-Sep-2021
 Local
(UTC-5)
 Zulu
(UTC)
Morning civil twilight06:4411:44
Sunrise07:0912:09
Sunset19:1500:15
Evening civil twilight19:4000:40

Current date and time
Zulu (UTC)  23-Sep-2021 06:51:58
Local (UTC-5)  23-Sep-2021 01:51:58
 
METAR
KTQH 
14nm N 
230635Z AUTO 00000KT 10SM CLR 07/05 A3017 RMK AO2
KJSV 
18nm S 
230635Z AUTO 00000KT 10SM CLR 09/07 A3016 RMK AO2
KMKO 
21nm W 
230553Z AUTO 00000KT 10SM CLR 10/07 A3017 RMK AO2 SLP215 T01000072 10222 20100 402670100 58003
KGZL 
26nm S 
230635Z AUTO 00000KT 10SM BKN023 08/05 A3017 RMK AO2
TAF
KFSM 
36nm SE 
230520Z 2306/2406 VRB04KT P6SM SKC
KFYV 
42nm NE 
230520Z 2306/2406 VRB05KT P6SM SKC
NOTAMs
Click for the latest NOTAMs
NOTAMs are issued by the DoD/FAA and will open in a separate window not controlled by AirNav.

 

 
 

FBO, Fuel Providers, and Aircraft Ground Support

  
 Business Name 
 
 Contact 
 
 Services / Description 
 
Fuel Prices
 
Comments
  
Tenkiller Lake Airpark 918-457-5444
no information available

If you are affiliated with Tenkiller Lake Airpark and would like to show here your services, contact info, web link, logo, and more, click here
100LL
AS $4.32 
 Updated 16-Apr-2019
 
   write
AS=Assisted/Self Service
Update Fuel Prices
 

Would you like to see your business listed on this page?

 If your business provides an interesting product or service to pilots, flight crews, aircraft, or users of the Tenkiller Lake Airpark, you should consider listing it here.  To start the listing process, click on the button below
 
Add a business
 

Other Pages about Tenkiller Lake Airpark

Update a link
 
Copyright © AirNav, LLC. All rights reserved. Privacy Policy  Contact